Location: Ellingshausen
(50.5460°N, 10.4723°E)
Time: 22:19:17
(UTC+00:00)

Cosmos 407 Rocket - Pass Details

Date: 18 January 2026
Orbit: 739 x 782 km, 74.0° (Epoch: 7 February)

Event Time Altitude Azimuth Distance (km) Brightness Sun altitude
Rises 05:14:25 0° 193° (SSW) 3,172 6.7 -17.9°
Reaches altitude 10° 05:16:46 10° 190° (S) 2,258 5.9 -17.5°
Maximum altitude 05:21:49 65° 110° (ESE) 828 3.9 -16.7°
Drops below altitude 10° 05:26:59 10° 29° (NNE) 2,302 6.2 -15.9°
Sets 05:29:23 0° 27° (NNE) 3,239 6.9 -15.6°
